Theta_e
345 335 336 341 341 339 337 337 338 339 340 339 339 339 338 338 336 330 321 319 324 336 334 333 328 328 325 331 333 332 329 325 322 317 313 313 315 316 319 316 319 333 334
343 334 335 343 341 339 336 338 338 339 340 338 338 338 337 335 329 318 324 316 336 337 328 328 326 317 316 321 326 326 324 322 323 325 323 323 319 319 316 313 315 326 331
336 330 341 345 342 338 336 341 340 339 339 338 337 334 333 327 315 333 325 327 335 337 335 332 329 314 316 321 321 319 320 328 329 330 329 328 330 328 326 319 315 314 322
335 330 337 344 339 338 340 341 340 338 337 335 325 327 324 315 335 338 335 330 337 337 336 332 328 311 312 314 314 314 324 330 331 330 330 329 331 333 333 329 329 328 331
336 331 333 344 338 334 340 339 341 336 336 329 320 316 312 315 335 336 335 333 336 336 335 333 318 312 313 315 317 318 325 329 329 329 331 328 329 330 331 333 332 331 334
342 334 335 334 335 336 337 337 337 337 331 323 315 311 310 312 329 331 332 335 334 333 333 330 314 314 318 320 321 323 327 330 330 330 327 324 321 329 332 333 333 334 334
343 341 337 338 341 338 336 336 335 334 325 327 315 312 311 311 312 321 327 329 331 329 327 315 316 316 318 320 320 324 325 329 330 329 328 326 317 319 328 328 329 331 331
345 346 341 340 343 341 336 334 335 336 333 329 320 312 312 312 311 312 317 321 326 322 315 315 318 319 319 319 320 322 329 329 329 329 325 320 327 328 326 324 320 317 318
344 344 343 339 342 342 336 336 338 337 333 324 323 314 313 313 313 315 317 321 320 316 315 318 319 320 319 319 319 320 327 328 329 326 323 322 330 329 324 322 317 311 312
343 342 337 337 342 341 337 340 338 337 334 324 323 317 313 314 313 315 316 316 315 315 317 319 320 319 319 319 319 318 320 321 321 318 320 320 328 327 323 316 311 307 307
342 341 341 330 334 335 333 333 333 329 327 326 322 319 314 314 315 314 315 315 315 317 318 319 320 319 319 319 320 319 318 318 316 317 321 322 324 323 319 313 309 306 305
342 342 341 336 335 330 327 324 322 321 321 320 321 323 317 315 315 315 316 316 317 317 318 319 320 320 320 320 320 320 319 318 317 317 319 320 320 315 313 311 307 305 305
342 342 341 340 339 338 329 329 327 321 319 319 322 324 327 319 320 319 318 317 317 318 318 318 320 320 320 320 320 321 321 319 317 317 317 318 318 313 310 307 305 305 305
343 342 341 340 340 339 336 334 332 326 322 320 325 330 328 328 327 329 328 328 324 318 318 319 320 322 320 320 320 320 320 320 316 317 318 319 319 318 308 307 305 305 305
341 342 341 340 339 339 338 337 334 333 332 332 331 335 335 333 330 331 331 331 329 325 319 319 321 323 322 321 320 321 320 320 319 317 318 318 319 318 312 308 306 305 305
341 340 341 341 340 339 338 338 337 335 336 335 336 335 336 337 335 333 332 331 331 331 331 326 327 327 327 324 322 321 320 320 320 318 318 318 318 317 314 308 306 305 305
337 337 335 336 340 339 338 338 339 337 337 337 337 337 335 335 335 334 333 331 331 333 332 331 330 330 330 329 324 319 319 319 318 319 319 318 318 317 313 309 306 305 304
335 338 338 338 339 338 336 337 338 339 338 338 337 338 338 336 335 333 332 331 330 331 333 333 331 331 330 329 326 321 318 318 317 318 319 318 318 317 314 311 307 306 305
324 326 332 339 337 339 338 338 336 336 339 339 338 337 337 337 336 335 333 332 331 330 331 333 332 331 331 329 327 324 320 317 318 317 318 319 319 317 315 312 308 306 305
318 323 324 324 323 325 333 337 339 336 335 336 337 338 336 336 337 337 336 335 333 331 330 331 332 330 331 330 329 326 322 318 317 318 318 319 320 319 317 313 309 308 305
317 319 320 320 321 322 324 326 328 334 335 333 332 334 335 335 334 336 335 333 334 334 333 332 331 332 331 331 330 328 322 318 316 317 317 317 318 320 319 315 311 308 306
318 318 318 319 319 320 320 320 320 321 324 329 331 331 331 334 333 329 333 335 335 332 333 333 331 331 331 331 330 327 318 317 317 318 317 319 318 318 319 317 312 309 307
316 316 316 316 317 318 318 319 319 319 320 321 325 328 331 331 331 329 328 329 331 332 332 332 331 329 329 329 329 327 317 317 319 320 318 319 319 318 317 316 313 309 307
314 314 314 314 315 316 316 317 318 318 318 318 319 319 324 329 328 328 328 328 328 327 328 329 331 331 329 329 329 328 326 322 321 321 321 321 318 316 314 312 311 309 307
314 313 312 312 313 313 313 313 312 313 313 315 316 317 321 326 328 328 327 329 327 326 326 327 329 330 330 328 327 328 326 322 319 319 320 321 318 315 313 311 310 308 306
317 316 315 314 313 313 313 313 313 313 313 313 312 312 313 318 323 326 327 326 327 327 328 327 328 328 328 329 330 328 327 325 320 318 317 317 318 315 314 310 321 311 305
Wind_Speed
15 15 18 20 18 16 15 13 12 10 7 4 2 3 2 2 3 4 6 10 16 15 13 9 8 7 7 7 7 7 7 9 11 13 14 13 12 11 12 12 12 14 16
16 20 19 20 17 17 15 14 13 12 10 8 5 5 4 3 4 8 11 16 17 14 11 13 11 9 7 7 8 8 9 11 13 14 16 15 14 14 13 13 12 10 9
18 23 22 21 18 16 15 14 15 13 10 9 5 7 6 5 10 11 14 16 15 14 11 9 10 9 10 11 10 11 14 16 14 14 16 14 12 12 11 12 13 10 7
16 23 20 20 19 17 16 15 14 12 9 7 5 8 7 11 16 12 12 14 13 12 9 7 9 10 13 14 14 17 17 16 16 13 11 9 10 10 9 8 9 10 9
18 22 21 20 17 16 16 14 13 10 6 5 7 8 10 15 15 13 12 13 11 11 6 6 8 11 14 15 15 16 16 15 11 7 3 4 7 10 10 9 9 10 12
15 20 20 19 17 17 15 13 11 7 9 9 9 10 10 13 14 13 11 11 10 10 7 4 7 10 12 13 14 15 15 15 11 8 7 7 6 6 10 11 12 10 8
14 16 18 19 17 16 15 11 9 9 9 9 9 9 10 10 11 11 10 9 8 8 5 6 8 9 10 11 12 13 13 13 8 4 2 5 3 2 6 3 2 4 3
12 13 12 18 17 15 13 12 10 8 6 8 8 9 9 9 10 10 10 9 8 6 6 7 8 8 8 9 10 12 11 9 4 1 3 5 3 3 3 2 3 4 5
13 10 11 16 16 13 13 13 13 9 7 7 6 7 9 10 10 10 10 9 8 7 7 8 7 7 7 7 9 10 9 7 4 1 2 3 1 1 2 4 6 6 4
10 7 9 17 17 15 17 15 13 12 9 4 6 6 6 7 9 11 10 9 8 8 7 7 6 6 6 6 7 8 7 5 3 3 2 3 3 3 4 7 7 7 2
8 6 3 13 15 14 12 16 14 12 11 9 7 9 8 8 8 8 9 10 10 10 9 8 6 6 6 6 6 6 6 4 4 2 2 3 6 7 8 8 7 6 3
11 8 3 8 9 11 11 12 12 12 12 11 10 9 9 9 9 8 9 8 9 9 10 9 8 7 7 7 6 6 5 4 6 5 5 6 8 9 9 7 7 5 2
17 12 6 4 5 6 10 11 10 12 13 13 12 10 9 10 12 10 10 10 11 11 10 10 9 9 9 9 8 8 6 6 9 9 8 8 9 8 7 6 6 4 1
20 19 16 10 10 11 9 10 9 11 12 14 10 7 10 13 13 12 11 10 13 13 12 12 12 12 12 12 11 10 9 8 12 12 11 11 11 10 9 7 6 5 3
21 22 22 20 16 15 15 13 12 10 10 9 10 8 9 11 12 12 14 13 12 12 14 14 14 14 14 14 12 13 12 10 14 15 14 14 12 12 12 10 7 6 6
11 18 23 24 24 21 20 16 11 12 10 11 11 12 13 12 14 16 19 18 15 15 14 15 14 15 14 15 15 16 15 13 15 17 17 16 15 13 14 13 10 9 8
9 9 12 21 27 24 25 23 19 16 17 17 16 16 17 17 17 22 23 23 21 20 18 16 15 17 18 21 20 19 18 17 17 18 20 19 17 16 15 14 13 11 11
11 15 15 12 12 14 19 26 26 23 23 22 22 19 18 20 22 26 26 26 24 24 22 22 22 23 26 26 23 21 20 20 20 21 22 22 21 19 17 16 15 14 13
15 13 12 17 17 17 16 14 20 27 28 27 25 22 21 23 21 21 24 27 27 26 27 26 27 30 30 29 27 25 24 23 23 24 25 25 24 22 20 18 18 17 16
18 22 21 16 13 14 14 15 18 19 20 24 30 30 25 25 25 26 26 25 28 30 30 31 30 30 33 31 29 29 28 28 26 27 28 27 27 26 24 22 20 19 19
19 19 22 25 23 15 16 19 19 22 25 26 25 24 26 30 27 26 30 29 29 32 32 32 31 31 34 35 32 31 31 30 31 31 30 31 31 29 28 27 23 22 21
19 17 18 20 22 22 22 22 22 23 23 24 27 29 29 28 29 31 31 34 34 35 35 34 34 35 37 38 35 33 27 34 38 37 34 34 34 33 31 30 29 26 25
15 21 23 24 26 28 30 31 30 31 31 28 26 25 27 30 30 28 34 35 35 36 36 37 39 39 41 41 41 31 14 22 24 32 38 39 37 37 36 33 32 30 28
10 13 15 19 23 25 27 29 30 32 34 34 32 29 24 24 27 27 26 26 34 36 38 39 36 42 43 44 42 43 41 32 19 14 24 32 39 39 38 36 34 33 32
4 4 5 5 6 9 11 12 16 22 28 31 32 31 27 23 23 26 28 27 28 27 33 38 37 40 39 43 48 46 45 47 39 33 30 28 29 37 38 35 34 33 33
5 5 5 6 7 10 12 12 13 14 14 15 17 21 25 30 28 23 25 28 27 26 25 29 34 35 38 41 44 47 46 45 48 42 37 36 31 32 35 36 32 34 35
Wind_Direction
173 178 161 151 146 141 135 132 127 116 111 104 110 184 129 66 52 52 78 103 112 108 99 96 89 84 95 118 112 93 81 71 61 61 61 63 70 74 70 66 96 100 96
178 173 162 150 147 144 139 134 131 125 125 130 122 145 136 112 78 96 92 116 116 111 100 85 71 65 74 123 118 99 90 84 81 76 74 60 67 70 70 75 94 109 109
174 164 156 153 153 146 143 138 136 135 142 137 138 130 127 108 107 101 105 120 120 122 111 87 58 58 77 108 110 108 103 90 79 68 70 61 65 69 71 78 85 93 101
176 165 159 151 154 152 151 150 142 149 144 122 90 114 122 117 112 101 121 128 123 133 112 81 52 73 93 101 106 112 108 95 88 80 72 54 64 67 69 84 84 81 66
174 166 168 159 161 160 159 158 152 151 152 120 107 112 119 128 126 124 123 129 134 125 118 77 60 89 95 100 105 113 115 109 93 71 135 64 85 68 73 83 75 84 72
168 168 170 164 164 163 164 160 167 182 156 125 113 114 123 138 145 141 132 132 130 135 134 86 88 98 98 99 107 113 116 107 105 98 73 68 86 97 97 92 96 110 106
163 161 164 161 166 165 156 159 169 156 147 128 123 121 124 133 147 151 147 144 143 135 129 115 110 108 106 107 110 116 112 114 98 83 51 20 31 109 104 130 133 141 153
166 172 172 166 167 167 163 167 165 160 182 138 141 137 135 134 141 151 155 153 146 139 129 122 115 111 108 111 115 122 118 120 123 308 11 34 59 64 73 41 323 285 259
175 191 197 187 168 173 171 169 160 182 188 147 152 153 150 145 145 147 145 148 150 145 138 130 121 114 113 115 122 135 141 138 156 272 52 25 117 93 25 355 338 317 282
184 202 194 187 170 174 175 175 178 182 189 189 177 175 167 162 159 160 158 157 158 158 154 147 139 129 128 127 132 143 156 145 199 227 313 337 229 284 331 331 337 341 329
190 192 172 194 184 188 183 189 198 209 213 218 222 202 187 184 181 179 175 175 176 177 174 171 168 161 158 154 154 158 173 180 198 234 268 293 257 279 307 320 328 341 342
190 184 209 183 171 190 196 203 208 215 223 229 227 205 201 200 198 199 195 199 201 203 195 193 190 187 184 181 179 186 195 215 246 248 260 273 276 278 292 306 314 326 358
179 185 214 221 203 230 200 200 212 220 222 225 224 227 212 201 212 203 216 218 220 220 216 214 215 213 208 206 201 207 219 223 249 254 263 271 276 276 275 292 300 295 291
185 182 189 209 218 243 240 229 230 221 220 223 225 226 226 233 228 229 236 255 252 244 235 233 229 228 230 225 219 225 227 233 247 257 264 266 275 277 276 285 284 268 251
195 190 188 192 208 235 242 238 237 220 228 235 230 228 229 229 243 253 260 263 262 258 256 246 241 239 233 239 243 242 238 230 246 250 257 268 272 279 272 277 272 262 249
206 201 200 199 207 212 229 234 239 243 244 256 258 244 239 239 249 256 263 267 263 261 263 253 254 247 252 253 251 245 248 242 243 251 256 265 270 274 273 269 266 256 247
251 264 225 219 225 226 222 227 214 211 232 244 254 255 249 246 237 250 259 265 266 266 267 268 262 261 261 264 259 250 248 244 242 250 257 261 266 271 269 263 261 254 250
228 245 252 252 240 243 240 234 225 213 216 224 232 243 246 243 243 246 246 253 256 257 261 264 262 254 256 261 261 257 252 248 242 249 254 260 262 265 265 260 258 254 248
231 232 224 241 249 254 249 242 240 237 228 226 228 229 237 251 254 252 253 255 256 252 251 252 259 249 253 257 260 260 258 251 248 244 251 256 262 264 264 260 255 250 249
230 225 236 234 247 251 254 261 260 250 242 238 241 242 240 240 252 259 263 261 256 254 252 252 251 249 252 257 259 261 258 257 250 247 247 252 256 262 262 259 254 250 248
224 216 221 234 241 235 238 246 255 260 264 263 255 254 249 246 254 255 259 265 263 256 258 255 256 249 248 249 248 254 253 251 251 250 245 247 251 255 261 262 254 249 244
225 229 229 225 223 227 233 236 247 258 260 264 268 268 268 263 259 254 251 262 263 263 259 258 258 252 252 251 241 244 245 248 251 251 247 244 247 251 255 256 257 249 246
253 255 254 248 245 245 248 247 246 248 253 257 257 258 261 268 273 269 259 259 258 263 266 263 255 256 259 256 254 237 223 237 252 257 249 248 245 245 250 251 252 254 249
265 257 254 252 249 248 250 251 253 254 255 257 263 267 267 268 273 274 273 265 262 264 262 262 265 258 259 259 252 248 246 250 248 259 255 245 243 244 247 249 250 251 250
258 257 254 250 249 249 250 256 257 258 261 263 261 257 259 263 266 272 274 276 279 273 265 261 264 264 260 260 260 255 246 245 247 251 259 255 243 240 242 244 253 254 253
271 284 273 258 248 251 262 268 271 269 269 269 268 264 256 255 260 268 276 278 276 278 277 268 264 268 270 270 264 260 258 251 245 246 253 253 253 245 240 240 251 250 252